Regional Weather Roundup
Issued by NWS

Home | Current Version | Previous Version | Graphics & Text | Print | Product List | Glossary Off
Versions: 1 2 3 4 5 6 7 8 9 10 11 12 13 14 15 16 17 18 19 20 21 22 23 24 25 26 27 28 29 30 31 32 33 34 35 36 37 38 39 40 41 42 43 44 45 46 47 48 49 50

000
ASUS43 KDMX 180501
RWRIA

WEATHER ROUNDUP FOR IOWA
NATIONAL WEATHER SERVICE DES MOINES IA
1200 AM CDT FRI AUG 18 2017

NOTE: "FAIR" INDICATES FEW OR NO CLOUDS BELOW 12,000 FEET WITH NO
SIGNIFICANT WEATHER AND/OR OBSTRUCTIONS TO VISIBILITY.

* - THESE STATIONS ARE NOT NWS STATIONS...THUS NOT UNDER NWS
QUALITY CONTROL.  THEY ALSO DO NOT REPORT WEATHER SUCH
AS PRECIPITATION OR FOG.

IAZ001>003-012>014-020>022-031>034-043>046-180600-
   NORTHWEST IOWA

CITY           SKY/WX    TMP DP  RH WIND       PRES   REMARKS
CARROLL *      MOCLDY    61  61 100 W5        29.92S
CHEROKEE *     CLEAR     59  59 100 CALM      29.92S
DENISON *      CLEAR     61  59  94 E5        29.94S
LE MARS *      CLEAR     59  59 100 CALM      29.91S FOG
ORANGE CITY *  CLEAR     64  63  94 CALM      29.92S
SHELDON *      CLOUDY    57  55  94 CALM      29.91R
SIOUX CITY     CLEAR     62  61  96 CALM      29.91R
SPENCER        CLEAR     60  59  96 W3        29.92R
STORM LAKE *   CLEAR     64  59  82 NW7       29.93S
$$

IAZ055>058-069>071-079>083-090>094-180600-
   SOUTHWEST IOWA

CITY           SKY/WX    TMP DP  RH WIND       PRES   REMARKS
ATLANTIC *     PTCLDY    61  61 100 CALM      29.92F
AUDUBON *      CLEAR     57  55  94 CALM      29.94S
CLARINDA *       N/A     59  59 100 CALM      29.96S FOG
COUNCIL BLFS * CLEAR     66  63  88 S3        29.93S HAZE
CRESTON *      CLEAR     64  59  82 W6        29.95S
HARLAN  *      CLEAR     59  59 100 CALM      29.96S
LAMONI         CLEAR     64  60  87 SW7       29.94R
RED OAK *      CLEAR     59  59 100 CALM      29.93F FOG
SHENANDOAH *   CLEAR     61  61 100 CALM      29.93F
$$

IAZ047>049-059>061-072>074-084-180600-
   CENTRAL IOWA

CITY           SKY/WX    TMP DP  RH WIND       PRES   REMARKS
AMES           CLEAR     63  62  97 CALM      29.90R
ANKENY *       CLEAR     68  61  77 W8        29.91R
BOONE *        CLEAR     66  63  88 NW5       29.90R
CHARITON *     CLEAR     64  59  82 SW6       29.91F
DES MOINES     CLEAR     68  61  78 SW5       29.90R
GRINNELL*      CLEAR     63  61  94 CALM      29.91S
KNOXVILLE *    CLEAR     64  59  82 SW7       29.89S
MARSHALLTOWN   CLEAR     62  62 100 W3        29.88S
NEWTON *       CLEAR     64  63  94 NW5       29.90R
PELLA *        CLEAR     67  61  80 W5        29.90S
PERRY *          N/A     61  60  97 W7        29.91S
$$

IAZ004>006-015-016-023>025-035-036-180600-
   NORTH CENTRAL IOWA

CITY           SKY/WX    TMP DP  RH WIND       PRES   REMARKS
ALGONA *       CLEAR     61  61 100 NW6       29.91R
CLARION *      CLEAR     59  59 100 SW3       29.90S
ESTHERVILLE    CLEAR     57  57 100 W7        29.91R
FORT DODGE *   CLOUDY    63  59  88 CALM      29.91S VSB<1/4
MASON CITY     CLEAR     61  59  93 W7        29.89S
FOREST CITY *    N/A     64  61  88 NW5       29.88F
WEBSTER CITY * CLEAR     61  59  94 W6        29.89R
IOWA FALLS *     N/A     61  60  95 W5        29.91R
$$

IAZ007>011-017>019-026>030-037>042-050>054-066-180600-
   NORTHEAST IOWA

CITY           SKY/WX    TMP DP  RH WIND       PRES   REMARKS
CEDAR RAPIDS   CLEAR     63  62  97 W6        29.86S
CHARLES CITY * PTCLDY    64  64 100 W6        29.87S
CLINTON *      CLEAR     64  63  96 W8        29.84F
DECORAH *      CLOUDY    66  63  88 CALM      29.84R
DUBUQUE        MOCLDY    66  63  90 W8        29.84S
MONTICELLO *   CLEAR     64  63  94 W7        29.84S
OELWEIN *      CLEAR     63  63 100 NW6       29.87S
WATERLOO       PTCLDY    65  61  87 W6        29.86S
$$

IAZ064-065-067-068-078-180600-
   EAST CENTRAL IOWA

CITY           SKY/WX    TMP DP  RH WIND       PRES   REMARKS
DAVENPORT        N/A     66  63  90 W7        29.87S
IOWA CITY      MOCLDY    68  63  84 W6        29.88R
MUSCATINE *    PTCLDY    68  63  83 SW7       29.86S
QUAD CITIES    CLEAR     70  63  78 W10G18    29.85S
$$

IAZ062-063-075>077-085>089-095>099-180600-
   SOUTHEAST IOWA

CITY           SKY/WX    TMP DP  RH WIND       PRES   REMARKS
BURLINGTON     PTCLDY    69  63  81 W3        29.87F
FAIRFIELD *    MOCLDY    64  61  88 SW5       29.88F
FORT MADISON * CLEAR     68  63  83 W5        29.89F
KEOKUK *       CLEAR     68  61  77 MISG      29.88S
OSKALOOSA *      N/A     62  60  93 W6        29.89F
OTTUMWA        CLEAR     65  61  87 W6        29.89R
WASHINGTON *   PTCLDY    64  64 100 SW7       29.89S
$$

ABBREVIATIONS USED IN REMARKS
   TC - TEMPERATURES IN CELSIUS
  WCI - WIND CHILL INDEX
   HX - HEAT INDEX
  VSB - VISIBILITY
$$




USA.gov is the U.S. government's official web portal to all federal, state and local government web resources and services.